TimeEDT,TemperatureF,Dew PointF,Humidity,Sea Level PressureIn,VisibilityMPH,Wind Direction,Wind SpeedMPH,Gust SpeedMPH,PrecipitationIn,Events,Conditions,WindDirDegrees,DateUTC
12:51 AM,64.0,54.0,70,30.30,10.0,NE,15.0,24.2,N/A,,Overcast,50,2012-10-13 04:51:00
1:51 AM,63.0,52.0,67,30.31,10.0,NE,11.5,24.2,N/A,,Partly Cloudy,50,2012-10-13 05:51:00
2:51 AM,61.0,50.0,67,30.32,10.0,NNE,10.4,20.7,N/A,,Clear,30,2012-10-13 06:51:00
3:51 AM,61.0,48.0,62,30.32,10.0,NNE,12.7,19.6,N/A,,Partly Cloudy,30,2012-10-13 07:51:00
4:51 AM,61.0,46.9,60,30.33,10.0,NE,11.5,21.9,N/A,,Clear,40,2012-10-13 08:51:00
5:51 AM,60.1,46.9,62,30.34,10.0,NE,9.2,18.4,N/A,,Clear,50,2012-10-13 09:51:00
6:51 AM,60.1,45.0,57,30.37,10.0,ENE,8.1,-,N/A,,Clear,60,2012-10-13 10:51:00
7:51 AM,61.0,46.9,60,30.39,10.0,NE,10.4,-,N/A,,Clear,50,2012-10-13 11:51:00
8:51 AM,63.0,46.9,56,30.41,10.0,NE,9.2,-,N/A,,Clear,50,2012-10-13 12:51:00
9:51 AM,64.9,48.0,54,30.42,10.0,NE,12.7,20.7,N/A,,Clear,40,2012-10-13 13:51:00
10:51 AM,66.0,48.0,52,30.42,10.0,NE,10.4,19.6,N/A,,Clear,50,2012-10-13 14:51:00
11:51 AM,66.9,48.9,52,30.42,10.0,NE,8.1,17.3,N/A,,Clear,40,2012-10-13 15:51:00
12:51 PM,68.0,50.0,52,30.40,10.0,NNE,12.7,20.7,N/A,,Clear,30,2012-10-13 16:51:00
1:51 PM,68.0,51.1,55,30.38,10.0,NE,9.2,16.1,N/A,,Clear,50,2012-10-13 17:51:00
2:51 PM,68.0,52.0,56,30.36,10.0,NNE,11.5,20.7,N/A,,Clear,30,2012-10-13 18:51:00
3:51 PM,66.9,52.0,59,30.35,10.0,NNE,8.1,17.3,N/A,,Clear,30,2012-10-13 19:51:00
4:51 PM,66.9,52.0,59,30.35,10.0,NNE,9.2,-,N/A,,Clear,30,2012-10-13 20:51:00
5:51 PM,64.0,52.0,65,30.37,10.0,NNE,8.1,16.1,N/A,,Clear,30,2012-10-13 21:51:00
6:51 PM,63.0,53.1,70,30.37,10.0,NNE,8.1,-,N/A,,Clear,30,2012-10-13 22:51:00
7:51 PM,63.0,53.1,70,30.37,10.0,NE,6.9,-,N/A,,Clear,50,2012-10-13 23:51:00
8:51 PM,63.0,55.0,75,30.37,10.0,NE,4.6,-,N/A,,Clear,40,2012-10-14 00:51:00
10:51 PM,63.0,57.0,81,30.35,10.0,NE,4.6,-,N/A,,Clear,50,2012-10-14 02:51:00